Theta_e
302 296 292 295 297 295 291 288 286 292 297 295 295 296 298 299 300 297 297 299 296 305 315 318 321 323 323 323 323 324 324 324 323 321 320 320 320 321 320 321 322 320 320 318
297 291 295 298 298 296 295 292 289 292 296 295 293 294 298 299 300 302 303 299 300 297 301 311 317 320 322 322 323 324 324 325 324 324 323 322 322 322 322 322 322 321 320 318
289 289 296 295 293 292 292 291 291 291 293 294 292 291 293 297 302 303 305 302 301 300 300 301 313 317 319 322 322 323 324 325 326 326 324 319 320 317 320 321 320 319 320 319
291 294 291 290 291 293 288 292 292 291 289 283 290 281 289 291 296 300 303 304 303 301 301 303 303 315 318 320 323 323 324 325 325 326 324 322 322 321 323 324 324 321 320 319
285 289 289 288 289 293 289 293 291 290 288 287 286 284 284 290 290 295 301 303 305 305 304 305 302 307 317 320 321 323 323 324 325 325 326 324 322 324 324 323 321 321 321 320
287 292 292 290 293 294 294 290 291 292 290 282 285 285 284 287 290 293 299 302 303 306 304 305 307 304 310 318 320 321 322 323 324 324 324 323 323 322 322 319 320 321 322 321
287 289 291 295 291 292 293 289 278 279 279 277 284 285 286 290 293 294 296 300 302 304 306 306 305 303 306 313 318 320 320 320 323 323 323 324 323 322 320 320 320 319 321 321
282 274 289 293 292 290 290 289 280 271 272 277 282 283 288 295 298 300 300 301 302 301 304 305 306 305 304 309 316 319 319 319 321 322 323 324 324 323 322 321 321 321 321 321
278 278 287 290 292 293 288 287 291 283 278 279 281 284 290 295 296 295 295 298 300 302 302 303 305 303 304 307 314 318 319 320 320 321 322 322 323 322 322 322 321 321 321 320
283 278 285 288 293 293 290 291 284 286 276 275 278 279 282 288 290 292 293 296 299 302 303 302 302 302 303 306 313 317 319 319 320 321 321 321 322 322 323 322 320 321 320 318
286 282 281 288 286 285 288 286 288 287 283 276 274 278 289 290 293 294 296 297 299 300 302 302 300 299 301 306 312 315 318 318 319 320 321 320 321 322 322 322 321 320 319 319
288 283 273 281 286 290 290 287 286 281 279 284 282 282 294 292 290 292 294 296 298 297 299 297 296 295 297 304 310 313 316 317 319 320 320 320 321 321 322 322 323 322 321 318
288 282 271 275 281 285 286 288 289 288 286 281 279 281 294 292 291 293 293 294 294 291 291 292 290 292 295 303 308 311 314 316 317 318 319 319 320 321 322 322 323 323 321 318
292 285 279 274 277 284 284 286 288 287 282 282 283 284 290 292 291 295 298 295 288 290 291 291 290 292 292 298 305 309 312 314 313 315 316 316 317 318 320 321 320 319 319 319
290 279 284 285 285 285 286 286 286 285 287 283 285 286 290 292 294 295 298 299 293 291 290 290 290 292 293 293 296 301 303 303 307 311 311 311 306 306 308 309 309 306 307 308
290 276 283 281 283 284 282 285 287 287 287 288 288 287 294 296 293 288 288 287 288 290 289 291 292 292 293 294 294 296 299 300 303 304 303 300 300 301 301 300 297 296 296 298
285 282 277 272 280 279 273 280 283 286 289 288 285 290 294 293 294 296 297 294 289 290 290 291 292 294 294 295 296 296 296 296 296 296 295 294 293 293 292 292 292 292 293 294
282 276 273 269 270 265 279 288 288 286 289 291 291 292 294 295 297 298 298 292 295 291 291 291 293 294 294 295 295 295 295 294 293 291 290 290 292 291 291 291 291 290 291 291
284 278 268 269 266 276 280 281 283 283 283 290 291 293 295 296 296 296 301 300 299 293 291 292 293 294 293 294 294 292 291 290 290 289 290 290 291 290 289 289 290 290 290 290
285 285 277 264 272 262 278 283 288 288 280 292 293 293 293 295 290 294 301 303 296 290 291 290 290 289 290 289 289 290 289 289 288 287 289 290 289 290 290 288 288 286 286 287
280 280 277 277 275 274 283 287 289 279 281 292 294 295 295 293 296 300 299 299 291 289 288 287 287 286 286 286 287 287 286 286 286 286 287 288 289 289 288 287 286 286 287 287
278 276 277 278 275 273 286 285 284 288 289 290 292 295 295 296 298 298 292 288 287 286 285 285 284 282 283 285 286 285 283 284 285 286 287 287 287 286 287 287 286 286 287 286
275 281 276 280 279 285 285 287 290 288 286 286 285 289 290 292 296 292 290 286 285 283 282 282 281 279 279 281 284 283 282 284 285 286 285 286 286 286 286 286 286 286 286 286
281 284 282 282 286 287 289 290 287 286 285 286 286 286 287 287 289 293 286 284 281 280 279 279 279 278 276 278 280 281 282 284 286 285 284 285 285 285 285 285 286 286 285 285
282 283 282 285 287 286 289 287 283 282 283 284 284 285 285 286 285 285 283 283 281 279 278 278 277 276 274 275 276 278 281 285 283 282 282 282 283 283 283 283 284 284 285 286
282 284 283 283 283 281 284 282 281 280 281 281 282 283 284 284 283 281 280 280 279 277 276 275 274 273 273 273 273 275 279 281 280 279 279 279 280 280 281 283 282 286 286 286
Wind_Speed
4 6 12 13 12 6 3 1 2 4 4 5 8 15 9 12 12 11 14 16 10 15 18 11 14 15 12 14 15 17 17 16 12 10 9 8 9 8 7 8 10 10 8 9
5 17 8 5 8 12 13 13 9 3 5 3 8 24 18 12 13 17 20 17 17 9 12 10 13 14 16 17 19 19 18 17 16 12 11 8 9 8 9 8 9 9 10 9
10 2 12 8 9 14 19 21 17 14 6 6 7 27 18 9 20 22 22 17 16 16 16 14 13 16 18 19 20 19 20 20 17 17 9 4 2 2 5 6 7 8 10 10
10 10 2 8 15 12 16 7 8 15 6 6 4 17 20 9 13 21 22 16 19 20 16 17 15 17 19 21 20 20 20 20 18 19 14 18 14 13 11 11 9 8 11 11
8 9 18 15 6 9 7 4 7 7 12 11 20 11 3 3 12 16 18 19 18 21 22 24 22 22 22 20 20 20 21 20 20 19 20 15 16 12 10 8 9 11 9 11
5 2 8 10 14 13 3 2 2 1 5 11 18 13 26 12 22 11 15 22 16 18 22 24 23 21 20 18 18 19 21 22 20 21 22 21 20 16 11 10 9 8 9 8
7 14 1 3 5 10 7 6 3 4 7 14 6 13 29 9 10 13 14 17 16 13 17 20 20 17 17 19 21 19 21 23 22 22 22 23 21 19 17 14 11 11 10 9
12 6 16 10 16 5 17 17 5 9 7 6 3 13 20 14 19 25 25 23 21 14 17 21 20 17 21 21 23 23 22 21 22 23 23 20 20 13 13 14 11 11 11 11
8 9 0 3 5 10 6 15 23 8 3 5 7 10 13 23 23 14 16 18 21 22 21 22 21 17 20 20 22 23 22 23 22 22 20 19 17 18 16 17 14 11 12 9
6 3 5 4 6 12 17 5 5 8 8 12 8 8 14 18 19 8 13 18 23 26 21 20 18 16 17 19 20 22 23 24 23 23 19 18 20 19 16 13 14 15 11 10
6 5 3 6 10 13 10 16 8 4 10 10 12 11 16 26 25 20 22 23 22 22 21 17 17 12 14 14 16 18 20 20 19 18 18 17 17 17 14 13 12 12 11 12
12 3 5 11 2 10 14 19 22 13 12 8 16 22 27 19 8 9 17 19 19 11 12 11 11 9 10 12 14 18 18 18 18 18 18 19 17 16 16 16 14 12 13 11
14 6 2 9 3 4 11 16 17 18 16 22 18 17 30 13 13 15 22 22 20 15 11 13 9 12 14 14 14 15 16 17 16 15 16 16 16 15 16 17 15 12 12 11
20 5 10 13 5 4 8 21 20 20 16 22 18 32 40 31 19 21 29 20 13 15 15 14 9 10 8 10 12 12 12 13 12 13 14 14 14 15 14 14 11 10 11 11
11 7 8 13 9 6 7 10 15 23 26 20 30 27 40 34 21 23 22 25 21 20 9 7 7 7 5 7 7 6 6 7 10 12 12 12 7 7 7 8 7 7 7 6
6 5 5 14 8 11 17 20 18 23 27 22 33 36 51 26 14 11 12 10 14 17 9 9 7 8 7 7 7 8 9 9 10 11 10 8 8 8 7 7 8 7 7 7
7 6 4 8 4 2 10 21 19 20 24 22 27 47 34 29 25 27 27 22 12 13 11 8 7 9 9 7 5 7 7 7 7 8 8 8 9 8 7 7 7 7 6 5
8 5 4 6 4 7 17 9 9 15 22 23 35 38 34 31 25 24 20 14 15 7 10 9 6 7 7 6 4 6 7 7 9 8 8 8 10 10 8 7 7 6 4 5
6 5 1 4 7 17 17 8 8 8 39 18 29 30 34 32 22 31 21 19 15 7 6 6 5 5 3 7 7 8 8 8 10 9 8 7 8 10 9 8 7 5 6 4
9 8 7 2 6 10 4 8 8 8 22 12 23 27 31 18 18 25 21 18 2 4 5 6 4 3 5 5 6 9 8 8 8 7 8 7 8 9 9 8 7 3 3 5
8 11 20 14 13 9 9 7 3 11 8 10 5 18 21 18 26 26 4 6 5 6 7 7 7 5 4 5 7 9 7 8 6 8 8 8 7 8 8 7 4 5 7 7
11 10 7 9 11 19 11 3 10 10 10 8 10 16 16 14 20 15 6 4 5 5 8 6 8 6 4 4 10 10 9 5 7 8 9 9 8 6 6 9 7 7 7 7
5 10 8 13 10 7 6 9 8 4 7 8 4 11 11 9 10 7 9 9 6 8 4 5 9 7 5 7 7 12 6 7 9 10 9 9 9 7 7 9 8 6 6 5
7 4 13 9 14 13 13 10 7 3 6 10 8 8 11 16 9 8 6 8 8 8 5 1 12 8 5 6 8 10 8 7 10 12 10 8 9 9 8 7 6 6 6 6
7 7 8 19 18 9 14 10 4 8 7 10 9 7 9 14 4 5 6 9 10 11 6 4 9 8 6 8 7 6 6 10 10 10 9 9 8 10 10 9 7 7 6 5
7 10 9 14 1 2 6 6 7 10 10 9 11 9 4 6 7 7 5 6 10 14 8 8 8 8 4 12 9 6 6 11 9 9 8 7 7 7 8 9 10 17 16 18
Wind_Direction
188 202 212 206 226 248 98 85 226 348 312 291 266 279 245 249 264 253 240 245 226 222 233 231 212 212 200 197 194 198 195 192 185 192 192 200 204 204 206 205 208 196 195 192
174 230 214 211 222 237 246 254 264 273 266 287 309 280 273 224 248 250 251 238 241 230 238 220 211 202 202 201 203 199 201 194 192 196 199 201 198 214 211 206 207 202 195 190
200 177 162 182 209 232 238 242 250 260 322 280 320 287 268 234 231 253 253 239 238 227 231 233 215 199 205 206 205 203 200 200 198 195 189 170 158 142 194 203 210 200 196 195
247 243 96 207 215 200 240 212 248 252 275 262 161 282 276 275 249 232 252 241 230 230 225 233 212 210 205 212 206 205 202 200 198 191 189 197 206 212 216 215 210 206 201 197
215 185 211 228 212 182 241 233 197 191 227 273 252 275 295 26 264 247 239 246 226 226 229 232 220 210 211 207 203 202 203 199 197 193 197 201 208 215 211 208 200 203 199 201
209 246 174 211 209 203 73 238 308 161 222 234 236 206 280 235 253 251 242 248 240 228 232 233 229 220 213 201 201 202 200 203 196 194 200 201 208 206 202 197 201 202 204 200
174 217 279 209 164 199 183 163 253 229 208 241 163 190 245 262 252 269 258 258 251 236 240 245 236 218 210 201 196 196 197 202 197 195 199 203 206 203 203 196 198 195 201 204
211 292 195 181 209 171 202 205 189 201 200 247 150 214 241 264 254 252 254 254 264 243 239 239 240 220 209 208 201 193 193 199 194 197 201 202 205 203 204 200 198 203 203 207
175 249 333 212 156 192 178 207 223 292 275 288 242 278 293 276 267 262 256 256 257 250 238 241 242 214 214 214 200 193 193 199 193 195 199 199 198 201 204 204 199 200 201 196
200 279 204 155 113 218 208 130 190 204 239 246 242 243 250 275 272 282 267 258 258 259 250 247 240 220 218 213 203 195 193 196 191 190 193 197 198 199 204 199 201 202 195 181
167 155 304 129 208 187 193 235 242 239 228 246 256 251 240 255 264 269 264 264 262 261 254 245 233 226 221 215 200 198 192 194 193 191 192 195 197 200 196 201 201 200 189 187
184 126 200 217 271 191 215 217 214 222 225 241 255 256 269 262 274 300 293 282 277 273 273 258 224 222 212 199 198 193 193 191 191 187 188 194 193 191 195 203 201 190 197 190
162 217 346 329 300 240 208 226 231 232 254 250 257 267 265 261 267 279 279 281 280 291 268 249 231 213 206 210 196 192 190 190 188 182 186 192 191 190 196 204 207 199 191 195
163 168 197 215 180 124 190 229 226 229 243 251 245 254 265 261 265 275 279 283 268 269 268 267 239 222 209 201 197 188 187 184 175 173 178 189 186 189 191 197 194 186 186 195
176 210 201 252 275 298 241 243 236 234 240 240 256 246 259 263 260 266 273 277 289 288 273 255 274 269 251 209 190 166 155 148 155 167 173 182 158 143 139 146 145 138 143 153
192 250 187 264 259 239 258 260 251 241 251 250 255 267 250 274 272 274 273 273 275 284 253 251 234 251 214 235 196 162 161 162 159 163 161 135 131 133 138 133 133 129 133 138
150 157 141 263 163 223 275 237 238 247 239 244 247 248 268 264 258 258 265 265 251 260 263 250 234 218 219 202 198 144 134 124 133 131 124 130 127 124 124 119 120 127 135 119
147 123 111 249 48 257 258 166 189 227 243 234 246 259 264 262 263 259 241 238 258 262 269 262 217 235 208 145 136 115 120 122 118 112 119 125 129 126 127 124 120 114 118 123
155 137 251 184 209 273 276 265 241 234 265 247 253 259 255 257 263 262 245 238 252 230 221 237 201 192 189 146 143 131 121 118 117 124 126 129 130 129 124 118 123 121 119 117
216 207 184 128 238 234 279 205 221 262 269 223 247 250 253 257 248 263 258 258 239 151 141 146 154 108 127 110 134 127 123 117 116 124 125 121 128 125 122 126 116 105 114 110
183 210 223 229 243 267 231 249 184 230 273 239 246 248 259 235 234 258 208 238 147 146 144 115 88 93 76 107 107 100 104 104 103 108 119 115 109 111 117 115 107 116 105 100
176 174 198 214 239 260 215 69 209 247 309 293 308 299 274 247 248 248 189 171 166 161 137 115 116 94 56 91 114 106 97 96 95 105 103 101 104 107 111 108 102 103 104 103
238 193 186 193 208 224 206 226 273 308 269 284 312 314 318 301 274 207 190 161 147 120 55 109 109 90 35 55 101 115 115 119 116 104 97 99 98 95 97 107 102 97 92 100
245 193 234 254 243 244 264 265 246 318 286 306 301 295 297 285 279 230 164 147 123 105 101 176 108 98 73 50 81 97 115 119 115 108 101 98 100 97 84 78 79 91 94 98
200 154 226 251 262 293 272 249 269 293 292 288 291 266 276 285 284 162 155 153 138 117 120 126 106 109 110 98 73 77 96 109 102 103 105 98 94 91 90 81 84 77 59 87
179 217 224 251 276 270 274 1 340 313 311 311 301 300 310 298 231 101 124 135 146 125 122 110 111 124 129 107 97 79 71 96 113 106 98 97 101 95 92 98 96 85 89 88